• MPC Preparation (Info)

  • MPEC 2019-Y119 : 2019 YU3

    The following Minor Planet Electronic Circular may be linked-to from your own Web pages, but must not otherwise be redistributed electronically.

    A form allowing access to any MPEC is at the bottom of this page.


    Read MPEC 2019-Y118 Read MPEC 2019-Y120


    M.P.E.C. 2019-Y119                            Issued 2019 December 30, 14:27 UT
    
         The Minor Planet Electronic Circulars contain information on unusual
             minor planets and routine data on comets.  They are published
        on behalf of Division F of the International Astronomical Union by the
              Minor Planet Center, Smithsonian Astrophysical Observatory,
                              Cambridge, MA 02138, U.S.A.
    
                 Prepared using the Tamkin Foundation Computer Network
    
                                  MPC@CFA.HARVARD.EDU
                URL https://www.minorplanetcenter.net/    ISSN 1523-6714
    
                                    2019 YU3                                 
    
    
    Observations:
         K19Y03U* C2019 12 27.59867610 15 08.781+06 44 07.12         20.01wUEY119F52
         K19Y03U  C2019 12 27.61082210 15 01.822+06 45 14.36         19.89wUEY119F52
         K19Y03U  C2019 12 27.62294410 14 54.884+06 46 21.29         20.13wUEY119F52
         K19Y03U bC2019 12 27.95012310 11 59.91 +07 15 45.5          20.4 GVEY119L01
         K19Y03U bC2019 12 27.95233810 11 58.69 +07 15 57.9          20.5 GVEY119L01
         K19Y03U bC2019 12 27.95544510 11 57.00 +07 16 15.1          20.5 GVEY119L01
         K19Y03U IC2019 12 27.95721910 11 56.05 +07 16 24.5          20.3 GVEY119L01
         K19Y03U KC2019 12 28.07972 10 10 48.21 +07 27 27.6          21.0 GVEY119595
         K19Y03U KC2019 12 28.10409 10 10 34.59 +07 29 39.2          21.1 GVEY119595
         K19Y03U  C2019 12 28.99169 10 02 45.64 +08 47 18.1          20.0 VVEY119033
         K19Y03U  C2019 12 28.99341 10 02 44.71 +08 47 27.1          20.2 VVEY119033
         K19Y03U  C2019 12 28.99513 10 02 43.79 +08 47 35.7          20.2 VVEY119033
         K19Y03U  C2019 12 28.99684 10 02 42.87 +08 47 44.8          19.9 VVEY119033
         K19Y03U bC2019 12 29.19236710 00 58.18 +09 04 25.9          20.5 GVEY119L01
         K19Y03U bC2019 12 29.19367310 00 57.53 +09 04 32.4          20.6 GVEY119L01
         K19Y03U bC2019 12 29.19652910 00 56.03 +09 04 47.7          20.6 GVEY119L01
         K19Y03U  C2019 12 29.19675 10 00 56.11 +09 04 44.6          20.0 VVEY119033
         K19Y03U  C2019 12 29.19847 10 00 55.20 +09 04 53.0          20.2 VVEY119033
         K19Y03U  C2019 12 29.20019 10 00 54.29 +09 05 01.7          20.6 VVEY119033
         K19Y03U  C2019 12 29.20191 10 00 53.38 +09 05 10.7          20.1 VVEY119033
         K19Y03U  C2019 12 29.22742 10 00 39.86 +09 07 19.2          20.1 VVEY119033
         K19Y03U  C2019 12 29.22913 10 00 38.94 +09 07 27.6          20.2 VVEY119033
         K19Y03U KC2019 12 30.17088 09 52 41.09 +10 24 44.4          19.8 GVEY119K87
         K19Y03U KC2019 12 30.17854 09 52 37.15 +10 25 20.8          20.3 GVEY119K87
         K19Y03U KC2019 12 30.18620 09 52 33.26 +10 25 56.5          19.5 GVEY119K87
    
    Observer details:
    033 Karl Schwarzschild Observatory, Tautenburg.  Observers S. Melnikov, U. Laux,
        B. Stecklum.  Measurer B. Stecklum.  1.34-m f/3 Schmidt + CCD.
    595 Farra d'Isonzo.  Observers S. Aschi, E. Pettarin.  Measurer E. Pettarin.  
        0.61-m f/4.5 reflector + CCD.
    F52 Pan-STARRS 2, Haleakala.  Observers J. Bulger, T. Dukes, T. Lowe, A. 
       Schultz, M. Willman.  Measurers K. Chambers, S. Chastel, T. de Boer, L. 
       Denneau, J. Fairlamb, H. Flewelling, M. Huber, C.-C. Lin, E. Magnier, Y. 
       Ramanjooloo, R. Wainscoat, R. Weryk.  1.8-m Ritchey-Chretien + CCD.
    K87 Dettelbach Vineyard Observatory.  Observer B. Haeusler.  0.3-m f/5.7 
       Schmidt-Cassegrain + CCD.
    L01 Visnjan Observatory, Tican.  Observer K. Korlevic.  1.0-m f/2.9 reflector + 
       CCD.
    
    Orbital elements:
    2019 YU3                                                 Earth MOID = 0.0211 AU
    Epoch 2020 May 31.0 TT = JDT 2459000.5                  Veres
    M 119.66393              (2000.0)            P               Q
    n   0.55730059     Peri.  257.68380     +0.99175630     -0.09616447
    a   1.4624343      Node   107.78821     +0.12096905     +0.92061037
    e   0.5617714      Incl.    5.10255     -0.04226025     +0.37845599
    P   1.77           H   22.5           G   0.15           U   8
    Residuals in seconds of arc
    191227 F52  0.1+  0.1+    191228 033  0.0   0.1-    191229 033  0.0   0.0
    191227 F52  0.1-  0.3+    191228 033  0.2-  0.0     191229 033  0.1+  0.4+
    191227 F52  0.3-  0.4+    191228 033  0.2-  0.3-    191229 033  0.1+  0.3+
    191227 L01  0.2-  0.2-    191228 033  0.4-  0.0     191229 033  0.1-  0.1+
    191227 L01  0.3-  0.2+    191229 L01  0.6-  0.5-    191230 K87  0.0   0.4+
    191227 L01  0.0   0.4+    191229 L01  0.0   0.6-    191230 K87  0.1-  0.3+
    191227 L01  0.4+  0.1+    191229 L01  0.4+  0.3+    191230 K87  0.5+  0.5-
    191228 595  0.9+  0.8-    191229 033  0.1-  0.3+
    191228 595  0.1-  0.6-    191229 033  0.0   0.0
    
    Ephemeris:
    2019 YU3                 a,e,i = 1.46, 0.56, 5                   q = 0.6409
    Date    TT    R. A. (2000) Decl.     Delta      r    Elong.  Phase     V
    2019 11 30    15 10 30.8 -31 28 25   0.1917  0.8071    18.7   156.9    28.5
    ...
    2019 12 15    12 30 55.8 -16 01 49   0.1301  0.9463    69.4   103.2    21.7
    ...
    2019 12 23    11 00 20.6 -01 03 42   0.1329  1.0235   103.8    69.0    20.6
    ...
    2019 12 29    10 02 40.0 +08 48 37   0.1513  1.0812   127.0    46.6    20.3
    2019 12 30    09 54 08.0 +10 11 35   0.1555  1.0908   130.5    43.3    20.3
    2019 12 31    09 45 55.0 +11 29 42   0.1601  1.1003   133.9    40.1    20.3
    ...
    2020 01 06    09 03 05.3 +17 43 02   0.1932  1.1571   151.8    23.7    20.4
    ...
    2020 01 14    08 21 28.0 +22 40 17   0.2505  1.2310   170.1     7.9    20.5
    ...
    2020 01 29    07 38 16.1 +26 28 31   0.3908  1.3633   163.0    12.2    21.9
    
    A. U. Tomatic                (C) Copyright 2019 MPC           M.P.E.C. 2019-Y119
    


    Read MPEC 2019-Y118 Read MPEC 2019-Y120


    MPEC number:

    Enter an MPEC number in one of the following forms:

    • 1997-B01 (the full form)
    • J97B01 (the packed version of the full form)
    • B01 (the abbreviated form)